Location: Mount Cross
(36.6390°N, 79.4878°W)
Time: 08:00:51
(UTC+00:00)

Vanguard 1 Rocket - Pass Details

Date: 08 April 2023
Orbit: 654 x 4221 km, 34.3° (Epoch: 01 June)

Event Time Altitude Azimuth Distance (km) Brightness Sun altitude
Rises 09:07:38 0° 280° (W) 7,046 - -21.1°
Reaches altitude 10° 09:19:35 10° 245° (WSW) 4,713 - -18.9°
Maximum altitude 09:20:37 10° 240° (WSW) 4,577 - -18.8°
Drops below altitude 10° 09:21:35 10° 236° (SW) 4,465 - -18.6°
Sets 09:29:26 0° 194° (SSW) 4,428 - -17.1°
